Dassault Systemes SA Net Profit Margin 2006-2021 | DASTY

Current and historical net profit margin for Dassault Systemes SA (DASTY) from 2006 to 2021. Net profit margin can be defined as net Income as a portion of total sales revenue. Dassault Systemes SA net profit margin for the three months ending March 31, 2021 was .
Dassault Systemes SA Net Profit Margin Historical Data
Date TTM Revenue TTM Net Income Net Margin
2021-03-31 $5.25B $0.65B 12.31%
2020-12-31 $5.09B $0.56B 11.01%
2020-09-30 $4.95B $0.53B 10.61%
2020-06-30 $4.76B $0.57B 12.00%
2020-03-31 $4.66B $0.63B 13.53%
2019-12-31 $4.50B $0.69B 15.33%
2019-09-30 $4.39B $0.72B 16.48%
2019-06-30 $4.33B $0.72B 16.62%
2019-03-31 $4.25B $0.73B 17.20%
2018-12-31 $4.11B $0.67B 16.36%
2018-09-30 $3.98B $0.67B 16.91%
2018-06-30 $3.90B $0.65B 16.60%
2018-03-31 $3.79B $0.62B 16.38%
2017-12-31 $3.65B $0.59B 16.09%
2017-09-30 $3.53B $0.51B 14.35%
2017-06-30 $3.46B $0.51B 14.64%
2017-03-31 $3.43B $0.49B 14.18%
2016-12-31 $3.38B $0.49B 14.61%
2016-09-30 $3.25B $0.47B 14.54%
2016-06-30 $3.18B $0.46B 14.56%
2016-03-31 $3.12B $0.46B 14.75%
2015-12-31 $3.15B $0.45B 14.17%
2015-09-30 $3.11B $0.43B 13.75%
2015-06-30 $3.07B $0.40B 13.08%
2015-03-31 $3.03B $0.38B 12.57%
2014-12-31 $2.93B $0.37B 12.60%
2014-09-30 $2.92B $0.40B 13.73%
2014-06-30 $2.89B $0.43B 14.99%
2014-03-31 $2.83B $0.45B 15.91%
2013-12-31 $2.77B $0.47B 17.06%
2013-09-30 $2.77B $0.46B 16.49%
2013-06-30 $2.73B $0.44B 16.09%
2013-03-31 $2.65B $0.44B 16.39%
2012-12-31 $2.63B $0.43B 16.51%
2012-09-30 $2.55B $0.42B 16.35%
2012-06-30 $2.50B $0.42B 16.61%
2012-03-31 $2.51B $0.41B 16.19%
2011-12-31 $2.46B $0.40B 16.17%
2011-09-30 $2.41B $0.39B 16.28%
2011-06-30 $2.33B $0.36B 15.35%
2011-03-31 $2.21B $0.33B 14.81%
2010-12-31 $2.07B $0.29B 14.06%
2010-09-30 $1.94B $0.30B 15.38%
2010-06-30 $1.85B $0.28B 15.37%
2010-03-31 $1.79B $0.26B 14.39%
2009-12-31 $1.78B $0.25B 13.76%
2009-09-30 $1.78B $0.23B 12.61%
2009-06-30 $1.82B $0.23B 12.73%
2009-03-31 $1.89B $0.26B 13.83%
2008-12-31 $1.95B $0.29B 14.65%
2008-09-30 $1.97B $0.30B 15.36%
2008-06-30 $1.91B $0.28B 14.74%
2008-03-31 $1.81B $0.27B 14.70%
2007-12-31 $1.73B $0.25B 14.34%
2007-09-30 $1.66B $0.24B 14.38%
2007-06-30 $1.60B $0.25B 15.47%
2007-03-31 $1.54B $0.23B 15.16%
2006-12-31 $1.46B $0.23B 15.63%
2006-09-30 $1.31B $0.20B 14.94%
2006-06-30 $1.22B $0.19B 15.57%
2006-03-31 $1.14B $0.20B 17.60%
2005-12-31 $1.10B $0.20B 18.55%
Sector Industry Market Cap Revenue
Computer and Technology Computer Software $74.871B $5.085B
Dassault Systemes is a worldwide recognized leader in CAD/CAM/CAE and PDM II markets. The company's mission to provide solutions to enable customersto build their digital enterprise, by defining, simulating, managing and optimizing concurrently product, manufacturing process, and resources. In this virtual space, customers create innovative, high quality, safe and affordable products. The company delivers scaleable process and design-centric solutions on both Unix and Windows NT environments.
Stock Name Country Market Cap PE Ratio
Microsoft (MSFT) United States $2157.676B 36.03
Adobe (ADBE) United States $295.978B 63.79
Oracle (ORCL) United States $250.554B 21.47
Salesforce, Inc (CRM) United States $223.286B 69.09
SAP SE (SAP) Germany $178.796B 22.74
Intuit (INTU) United States $144.877B 69.03
Autodesk (ADSK) United States $72.079B 124.10
VMware (VMW) United States $65.902B 30.67
Synopsys (SNPS) United States $44.125B 56.15
Cadence Design Systems (CDNS) United States $41.475B 58.08
ANSYS (ANSS) United States $32.318B 66.46
SS&C Technologies Holdings (SSNC) United States $19.574B 17.51
Nuance Communications (NUAN) United States $15.665B 144.10
PTC (PTC) United States $15.473B 54.27
Open Text (OTEX) Canada $14.082B 15.96
Citrix Systems (CTXS) United States $12.796B 30.12
Manhattan Associates (MANH) United States $10.385B 110.68
Pegasystems (PEGA) United States $10.344B 0.00
Aspen Technology (AZPN) United States $9.865B 43.17
Trend Micro (TMICY) Japan $7.431B 29.02
Descartes Systems Group (DSGX) Canada $6.167B 107.18
MicroStrategy (MSTR) United States $6.092B 113.03
ACI Worldwide (ACIW) United States $3.959B 21.48
CommVault Systems (CVLT) United States $3.519B 91.32
Blackbaud (BLKB) United States $3.466B 59.16
Cornerstone OnDemand (CSOD) United States $3.229B 21.68
Verint Systems (VRNT) United States $2.764B 16.55
Progress Software (PRGS) United States $2.012B 15.53
PROS Holdings (PRO) United States $1.868B 0.00
Bottomline Technologies (EPAY) United States $1.826B 143.68
QAD (QADB) United States $1.781B 140.98
Avid Technology (AVID) United States $1.634B 41.08
Sapiens (SPNS) Israel $1.374B 25.08
Canaan (CAN) China $1.237B 0.00
OptimizeRx (OPRX) United States $0.974B 2789.00
Simulations Plus (SLP) United States $0.945B 82.33
Magic Software Enterprises (MGIC) Israel $0.851B 22.24
American Software (AMSWA) United States $0.728B 85.58
Icad Inc (ICAD) United States $0.363B 0.00
Smith Micro Software (SMSI) United States $0.278B 65.00
ServiceSource (SREV) United States $0.155B 0.00
Park City (PCYG) United States $0.109B 51.00
Neonode (NEON) Sweden $0.060B 0.00
NetSol Technologies (NTWK) United States $0.053B 21.18
BSQUARE (BSQR) United States $0.039B 0.00
GSE Systems (GVP) United States $0.028B 0.00
Duolingo (DUOL) United States $0.000B 0.00